TimeCST,TemperatureF,Dew PointF,Humidity,Sea Level PressureIn,VisibilityMPH,Wind Direction,Wind SpeedMPH,Gust SpeedMPH,PrecipitationIn,Events,Conditions,WindDirDegrees,DateUTC
12:35 AM,39.2,35.6,87,29.81,2.5,East,19.6,29.9,0.04,Rain,Light Rain,90,2012-12-20 06:35:00
12:49 AM,39.2,35.6,87,29.81,3.0,East,20.7,27.6,0.05,Rain,Light Rain,100,2012-12-20 06:49:00
12:53 AM,39.0,36.0,89,29.83,4.0,East,15.0,27.6,0.05,Rain,Light Rain,90,2012-12-20 06:53:00
1:11 AM,39.2,35.6,87,29.80,2.5,East,21.9,29.9,0.03,Rain,Rain,100,2012-12-20 07:11:00
1:37 AM,39.2,35.6,87,29.76,3.0,East,20.7,27.6,0.07,Rain,Rain,90,2012-12-20 07:37:00
1:53 AM,39.9,36.0,86,29.75,4.0,East,20.7,27.6,0.08,Rain,Light Rain,90,2012-12-20 07:53:00
2:03 AM,39.2,37.4,93,29.73,2.5,East,23.0,29.9,0.01,Rain,Rain,100,2012-12-20 08:03:00
2:28 AM,39.2,35.6,87,29.72,3.0,East,20.7,32.2,0.05,Rain,Rain,100,2012-12-20 08:28:00
2:36 AM,39.2,35.6,87,29.71,2.5,East,23.0,28.8,0.07,Rain,Rain,100,2012-12-20 08:36:00
2:53 AM,39.9,36.0,86,29.70,2.5,East,21.9,35.7,0.09,Rain,Rain,90,2012-12-20 08:53:00
3:12 AM,39.2,37.4,93,29.66,2.5,East,19.6,-,0.03,Rain,Rain,80,2012-12-20 09:12:00
3:53 AM,39.9,37.0,89,29.64,2.5,East,21.9,32.2,0.12,Rain,Light Rain,100,2012-12-20 09:53:00
4:03 AM,39.2,37.4,93,29.60,3.0,East,25.3,31.1,0.00,Rain,Light Rain,100,2012-12-20 10:03:00
4:49 AM,39.2,37.4,93,29.55,2.0,East,20.7,35.7,0.02,Rain,Light Rain,100,2012-12-20 10:49:00
4:53 AM,39.9,37.0,89,29.57,2.0,East,21.9,35.7,0.02,Rain,Light Rain,100,2012-12-20 10:53:00
5:04 AM,41.0,37.4,87,29.53,4.0,East,23.0,32.2,0.00,Rain,Light Rain,100,2012-12-20 11:04:00
5:37 AM,41.0,37.4,87,29.49,2.5,East,19.6,27.6,0.05,Rain,Rain,100,2012-12-20 11:37:00
5:53 AM,41.0,37.9,89,29.48,2.5,East,24.2,34.5,0.09,Rain,Rain,100,2012-12-20 11:53:00
6:53 AM,42.1,39.0,89,29.45,2.5,ESE,17.3,26.5,0.16,Rain,Rain,110,2012-12-20 12:53:00
7:53 AM,42.1,39.9,92,29.33,2.0,East,23.0,32.2,0.11,Rain,Light Rain,100,2012-12-20 13:53:00
8:53 AM,44.1,41.0,89,29.34,3.0,SE,12.7,-,N/A,,Overcast,130,2012-12-20 14:53:00
9:53 AM,44.1,41.0,89,29.29,3.0,ESE,17.3,24.2,0.00,Rain,Light Rain,110,2012-12-20 15:53:00
10:53 AM,44.1,41.0,89,29.21,1.8,ESE,17.3,25.3,0.08,Rain,Light Rain,110,2012-12-20 16:53:00
11:00 AM,44.6,41.0,87,29.18,3.0,ESE,16.1,25.3,0.00,Rain,Light Rain,110,2012-12-20 17:00:00
11:22 AM,44.6,41.0,87,29.16,2.0,East,13.8,-,0.01,Rain,Rain,100,2012-12-20 17:22:00
11:53 AM,44.1,42.1,93,29.14,2.0,ESE,17.3,-,0.02,Rain,Light Rain,110,2012-12-20 17:53:00
12:17 PM,44.6,42.8,93,29.10,1.0,East,13.8,-,0.02,Rain,Light Rain,100,2012-12-20 18:17:00
12:53 PM,44.1,42.1,93,29.10,0.8,NNE,8.1,-,0.06,Rain,Light Rain,30,2012-12-20 18:53:00
1:49 PM,42.8,41.0,93,29.06,1.0,NNE,13.8,-,0.25,Rain,Heavy Rain,20,2012-12-20 19:49:00
1:53 PM,43.0,41.0,93,29.08,1.0,NNE,15.0,-,0.27,Rain,Heavy Rain,20,2012-12-20 19:53:00
2:53 PM,41.0,37.9,89,29.05,2.5,North,17.3,28.8,0.13,Rain,Light Rain,10,2012-12-20 20:53:00
3:33 PM,37.4,35.6,93,29.07,3.0,North,18.4,33.4,0.06,Rain,Light Rain,350,2012-12-20 21:33:00
3:53 PM,37.0,34.0,89,29.11,5.0,North,13.8,26.5,0.07,Rain,Light Rain,350,2012-12-20 21:53:00
4:14 PM,33.8,32.0,93,29.11,2.0,NNW,12.7,21.9,0.01,Rain-Snow,Light Snow,330,2012-12-20 22:14:00
4:53 PM,34.0,30.9,89,29.16,2.0,NNW,13.8,23.0,0.04,Snow,Light Snow,340,2012-12-20 22:53:00
5:00 PM,33.8,30.2,87,29.15,1.0,NNW,11.5,19.6,0.01,Snow,Light Snow,330,2012-12-20 23:00:00
5:53 PM,33.1,30.9,92,29.18,1.0,NW,13.8,23.0,0.05,Snow,Light Snow,320,2012-12-20 23:53:00
6:53 PM,34.0,30.9,89,29.22,1.5,NW,20.7,28.8,0.02,Snow,Light Snow,310,2012-12-21 00:53:00
7:53 PM,33.1,30.9,92,29.26,1.0,NW,20.7,33.4,0.01,Snow,Light Snow,320,2012-12-21 01:53:00
7:57 PM,33.8,30.2,87,29.24,0.8,NW,20.7,31.1,0.00,Snow,Light Snow,320,2012-12-21 01:57:00
8:50 PM,33.8,30.2,87,29.27,1.0,NW,26.5,35.7,0.00,Snow,Light Snow,320,2012-12-21 02:50:00
8:53 PM,33.1,30.0,89,29.29,1.0,NNW,23.0,34.5,0.00,,Overcast,330,2012-12-21 02:53:00
9:00 PM,33.8,30.2,87,29.27,-9999.0,NW,24.2,33.4,N/A,Snow,Light Snow,320,2012-12-21 03:00:00
9:13 PM,33.8,30.2,87,29.28,1.2,NW,20.7,35.7,N/A,Snow,Light Snow,320,2012-12-21 03:13:00
9:34 PM,33.8,30.2,87,29.30,1.0,NW,23.0,34.5,N/A,Snow,Light Snow,320,2012-12-21 03:34:00
9:42 PM,33.8,30.2,87,29.30,1.2,NW,21.9,36.8,N/A,Snow,Light Snow,320,2012-12-21 03:42:00
9:50 PM,33.8,30.2,87,29.31,1.0,NW,20.7,34.5,N/A,Snow,Light Snow,320,2012-12-21 03:50:00
9:53 PM,33.1,30.9,92,29.33,1.0,NW,21.9,34.5,N/A,Snow,Light Snow,320,2012-12-21 03:53:00
10:04 PM,33.8,30.2,87,29.32,1.0,NW,24.2,35.7,0.00,Snow,Light Snow,320,2012-12-21 04:04:00
10:43 PM,33.8,30.2,87,29.36,1.5,NW,20.7,31.1,0.01,Snow,Light Snow,320,2012-12-21 04:43:00
10:53 PM,33.1,30.9,92,29.38,1.2,NW,16.1,31.1,0.01,Snow,Light Snow,320,2012-12-21 04:53:00
11:03 PM,33.8,30.2,87,29.37,1.0,NW,18.4,32.2,0.00,Snow,Light Snow,320,2012-12-21 05:03:00
11:24 PM,33.8,30.2,87,29.38,-9999.0,North,-9999.0,-,0.00,,Unknown,0,2012-12-21 05:24:00
11:40 PM,33.8,30.2,87,29.39,1.5,NW,23.0,36.8,0.00,Snow,Light Snow,320,2012-12-21 05:40:00
11:53 PM,34.0,30.0,85,29.42,1.5,NNW,24.2,38.0,0.00,Snow,Light Snow,330,2012-12-21 05:53:00